Weather in Yalmta

Russia / Republic of Kalmykia     46°32′13″N   44°53′47″E
temp.,
°C
wind,
m/s
gust,
m/s
humid.,
%
clouds,
%
prec.,
mm/h
press.,
hPa
HPBL,
m
27 january, wed
wed2700:00+2se469315 0.0 1021144
03:00+1se499546 0.0 1020214
06:00+1se5109496 0.0 1020268
09:00+2se7129198 0.0 1019416
12:00+5se81279100 0.0 1018670
15:00+5ese91274100 0.0 1016783
18:00+4ese91380100 0.0 1015816
21:00+3ese81480100 0.0 1013721
28 january, thu
thu2800:00+2ese71477100 0.0 1012604
03:00+2ese71279100 0.0 1010536
06:00+1ese71279100 0.0 1009472
09:00+1e71077100 0.0 1009430
12:00+3e71171100 0.0 1007510
15:00+5ene4769100 0.0 1006588
18:00+4nne3675100 0.0 1007159
21:00+3nnw5778100 0.0 1007179
29 january, fri
fri2900:00+2wnw5878100 0.0 1008235
03:00+2wnw4885100 0.0 1009330
06:00+2wnw31191100 0.0 1011433
09:00+3wnw5117478 0.0 1012452
12:00+6wnw585673 0.0 1013948
15:00+7wsw455987 0.0 1013831
18:00+4sw3473100 0.0 101452
21:00+3sw498683 0.0 1014186
30 january, sat
sat3000:00+2sw348595 0.0 101489
03:00+2ssw358497 0.0 101493
06:00+1s468697 0.0 1013132
09:00+2s6107694 0.0 1013264
12:00+6s6861100 0.0 1012429
15:00+7sse5664100 0.0 1011292
18:00+4sse6117690 0.0 1011268
21:00+4sse6128468 0.0 1010323
31 january, sun
sun3100:00+2se51189100 0.0 1009294
03:00+1se51089100 0.0 1008298
06:00+1se4988100 0.0 1007296
09:00+1sse4885100 0.0 1008311
12:00+4sse3576100 0.0 1010382
15:00+6s3474100 0.0 1010372
18:00+4s448364 0.0 101280
21:00+4ssw478570 0.0 1013151